FDX104 KBOS-KPWM

Flight info

Callsign FDX104
Flight time 0h 21m
Altitude 15000
Route LBSTA8 LBSTA SCOGS SCOGS3
Aircraft MD11/H-SDE1E2E3FGHIJ2J3J4J5M1RWXY/LB1D1

Departure

Time 2026-05-08 01:33
Airport Boston Logan International Airport (KBOS)

Arrival

Time 2026-05-08 01:54
Airport Portland International Jetport (KPWM)
Time Latitude Longitude Altitude Speed Heading
2026-05-08 00:59 42.35855 -71.02087 34 ft 0 kts 210°
2026-05-08 01:20 42.35862 -71.02082 33 ft 3 kts 211°
2026-05-08 01:21 42.35880 -71.02067 32 ft 3 kts 212°
2026-05-08 01:21 42.35896 -71.02053 32 ft 2 kts 212°
2026-05-08 01:21 42.35910 -71.02042 33 ft 3 kts 200°
2026-05-08 01:21 42.35925 -71.02038 33 ft 3 kts 168°
2026-05-08 01:22 42.35937 -71.02045 33 ft 3 kts 130°
2026-05-08 01:22 42.35948 -71.02067 34 ft 3 kts 120°
2026-05-08 01:22 42.35954 -71.02080 34 ft 0 kts 121°
2026-05-08 01:26 42.35940 -71.02049 32 ft 9 kts 121°
2026-05-08 01:27 42.35881 -71.01910 34 ft 24 kts 118°
2026-05-08 01:27 42.35829 -71.01676 34 ft 26 kts 102°
2026-05-08 01:27 42.35907 -71.01542 34 ft 19 kts 21°
2026-05-08 01:27 42.36054 -71.01470 34 ft 26 kts 19°
2026-05-08 01:28 42.36228 -71.01386 34 ft 27 kts 20°
2026-05-08 01:28 42.36321 -71.01280 34 ft 15 kts 110°
2026-05-08 01:28 42.36267 -71.01161 34 ft 15 kts 121°
2026-05-08 01:28 42.36218 -71.01033 34 ft 16 kts 110°
2026-05-08 01:29 42.36173 -71.00886 34 ft 19 kts 114°
2026-05-08 01:29 42.36110 -71.00678 35 ft 28 kts 109°
2026-05-08 01:29 42.36037 -71.00391 34 ft 36 kts 109°
2026-05-08 01:29 42.35940 -71.00065 34 ft 25 kts 131°
2026-05-08 01:30 42.35926 -71.00045 33 ft 1 kts 133°
2026-05-08 01:30 42.35866 -70.99963 34 ft 23 kts 137°
2026-05-08 01:30 42.35704 -70.99746 34 ft 41 kts 134°
2026-05-08 01:30 42.35495 -70.99456 34 ft 37 kts 120°
2026-05-08 01:31 42.35535 -70.99280 34 ft 11 kts 351°
2026-05-08 01:31 42.35594 -70.99339 34 ft 0 kts 315°
2026-05-08 01:32 42.35682 -70.99456 34 ft 55 kts 315°
2026-05-08 01:32 42.36154 -71.00088 31 ft 134 kts 315°
2026-05-08 01:32 42.36980 -71.01179 90 ft 194 kts 314°
2026-05-08 01:32 42.38040 -71.02621 502 ft 234 kts 314°
2026-05-08 01:33 42.39192 -71.04401 1199 ft 273 kts 300°
2026-05-08 01:33 42.39843 -71.06842 1820 ft 272 kts 277°
2026-05-08 01:33 42.39915 -71.09434 1850 ft 285 kts 274°
2026-05-08 01:33 42.40325 -71.12058 1588 ft 273 kts 296°
2026-05-08 01:34 42.41473 -71.13854 2247 ft 259 kts 330°
2026-05-08 01:34 42.43117 -71.14767 2907 ft 253 kts 339°
2026-05-08 01:34 42.44772 -71.15615 3844 ft 256 kts 339°
2026-05-08 01:34 42.46508 -71.16334 4817 ft 267 kts 348°
2026-05-08 01:35 42.48441 -71.16690 4737 ft 294 kts 356°
2026-05-08 01:35 42.50472 -71.16629 4284 ft 290 kts
2026-05-08 01:35 42.52364 -71.16095 4840 ft 269 kts 18°
2026-05-08 01:35 42.53998 -71.14883 5726 ft 281 kts 49°
2026-05-08 01:36 42.55014 -71.12545 5980 ft 288 kts 61°
2026-05-08 01:36 42.55954 -71.10192 6729 ft 279 kts 58°
2026-05-08 01:36 42.57188 -71.08135 7673 ft 290 kts 48°
2026-05-08 01:36 42.58530 -71.06068 8557 ft 290 kts 49°
2026-05-08 01:37 42.59838 -71.04003 9757 ft 286 kts 49°
2026-05-08 01:37 42.61110 -71.01941 10912 ft 285 kts 50°
2026-05-08 01:37 42.62414 -70.99772 11295 ft 311 kts 51°
2026-05-08 01:37 42.63752 -70.97486 11655 ft 302 kts 52°
2026-05-08 01:38 42.65013 -70.95272 12761 ft 291 kts 52°
2026-05-08 01:38 42.66218 -70.93110 13915 ft 290 kts 53°
2026-05-08 01:38 42.67516 -70.90760 13644 ft 325 kts 53°
2026-05-08 01:38 42.68840 -70.88355 14126 ft 312 kts 53°
2026-05-08 01:39 42.70142 -70.86002 14926 ft 318 kts 53°
2026-05-08 01:39 42.71522 -70.83526 14698 ft 335 kts 52°
2026-05-08 01:39 42.72897 -70.81073 15097 ft 325 kts 52°
2026-05-08 01:39 42.74305 -70.78578 14830 ft 330 kts 51°
2026-05-08 01:40 42.75712 -70.76202 15246 ft 320 kts 51°
2026-05-08 01:40 42.77158 -70.73777 14842 ft 337 kts 51°
2026-05-08 01:40 42.78680 -70.71235 15070 ft 353 kts 50°
2026-05-08 01:40 42.80294 -70.68562 15181 ft 375 kts 50°
2026-05-08 01:41 42.82016 -70.65762 14720 ft 406 kts 50°
2026-05-08 01:41 42.83865 -70.62639 12975 ft 432 kts 51°
2026-05-08 01:41 42.85692 -70.59660 13773 ft 402 kts 46°
2026-05-08 01:41 42.87819 -70.57088 14206 ft 420 kts 34°
2026-05-08 01:42 42.90302 -70.55054 14690 ft 413 kts 30°
2026-05-08 01:42 42.92796 -70.53099 15056 ft 426 kts 29°
2026-05-08 01:42 42.95379 -70.51131 15134 ft 426 kts 28°
2026-05-08 01:42 42.97996 -70.49196 14020 ft 429 kts 28°
2026-05-08 01:43 43.00723 -70.47233 11382 ft 459 kts 27°
2026-05-08 01:43 43.03321 -70.45425 11062 ft 396 kts 27°
2026-05-08 01:43 43.05649 -70.43701 11101 ft 366 kts 30°
2026-05-08 01:43 43.07666 -70.42087 10848 ft 302 kts 30°
2026-05-08 01:44 43.09426 -70.40633 10872 ft 295 kts 30°
2026-05-08 01:44 43.11189 -70.39189 10969 ft 293 kts 31°
2026-05-08 01:44 43.12926 -70.37683 10915 ft 302 kts 32°
2026-05-08 01:44 43.14668 -70.36125 10891 ft 293 kts 33°
2026-05-08 01:45 43.16345 -70.34576 11073 ft 291 kts 34°
2026-05-08 01:45 43.17994 -70.33009 11283 ft 294 kts 35°
2026-05-08 01:45 43.19663 -70.31376 11597 ft 295 kts 36°
2026-05-08 01:45 43.21350 -70.29679 11567 ft 306 kts 36°
2026-05-08 01:46 43.23071 -70.27871 10953 ft 318 kts 38°
2026-05-08 01:46 43.24807 -70.25957 10145 ft 324 kts 39°
2026-05-08 01:46 43.26550 -70.23951 9338 ft 329 kts 40°
2026-05-08 01:46 43.28289 -70.21880 8501 ft 333 kts 41°
2026-05-08 01:47 43.29965 -70.19824 8611 ft 303 kts 42°
2026-05-08 01:47 43.31429 -70.17973 9039 ft 282 kts 43°
2026-05-08 01:47 43.32910 -70.16059 7870 ft 305 kts 43°
2026-05-08 01:48 43.36873 -70.12159 5249 ft 365 kts 26°
2026-05-08 01:48 43.39121 -70.10667 4737 ft 350 kts 25°
2026-05-08 01:48 43.41093 -70.09417 4152 ft 281 kts 24°
2026-05-08 01:48 43.42865 -70.08325 4137 ft 271 kts 22°
2026-05-08 01:49 43.44640 -70.07284 4165 ft 284 kts 22°
2026-05-08 01:49 43.46452 -70.06217 3908 ft 279 kts 22°
2026-05-08 01:49 43.48242 -70.05229 3611 ft 280 kts 21°
2026-05-08 01:49 43.50099 -70.04260 2742 ft 292 kts 15°
2026-05-08 01:50 43.51990 -70.04050 3369 ft 253 kts 352°
2026-05-08 01:50 43.53777 -70.04545 3926 ft 282 kts 346°
2026-05-08 01:50 43.55685 -70.05189 3864 ft 276 kts 345°
2026-05-08 01:50 43.57573 -70.05887 3418 ft 284 kts 343°
2026-05-08 01:51 43.59412 -70.06592 3271 ft 270 kts 343°
2026-05-08 01:51 43.61150 -70.07402 3293 ft 266 kts 334°
2026-05-08 01:51 43.62736 -70.08758 3320 ft 270 kts 315°
2026-05-08 01:51 43.63589 -70.10985 3312 ft 273 kts 272°
2026-05-08 01:52 43.63605 -70.13617 2796 ft 275 kts 274°
2026-05-08 01:52 43.63738 -70.16252 2139 ft 266 kts 272°
2026-05-08 01:52 43.63791 -70.18668 1359 ft 226 kts 271°
2026-05-08 01:52 43.63847 -70.20662 994 ft 196 kts 272°
2026-05-08 01:53 43.63938 -70.22588 700 ft 221 kts 275°
2026-05-08 01:53 43.64078 -70.24699 631 ft 213 kts 275°
2026-05-08 01:53 43.64202 -70.26600 373 ft 172 kts 275°
2026-05-08 01:53 43.64312 -70.28303 108 ft 187 kts 274°
2026-05-08 01:54 43.64422 -70.30040 63 ft 163 kts 274°
2026-05-08 01:54 43.64496 -70.31263 83 ft 90 kts 275°
2026-05-08 01:54 43.64544 -70.31970 90 ft 56 kts 276°
2026-05-08 01:54 43.64650 -70.32058 92 ft 18 kts 68°
2026-05-08 01:55 43.64646 -70.31865 90 ft 24 kts 95°
2026-05-08 01:55 43.64630 -70.31603 84 ft 30 kts 95°
2026-05-08 01:55 43.64609 -70.31328 81 ft 29 kts 95°
2026-05-08 01:55 43.64590 -70.31025 76 ft 34 kts 94°
2026-05-08 01:56 43.64578 -70.30735 67 ft 15 kts 72°
2026-05-08 01:56 43.64675 -70.30698 68 ft 20 kts 357°
2026-05-08 01:56 43.64775 -70.30629 66 ft 18 kts 71°
2026-05-08 01:56 43.64806 -70.30428 65 ft 23 kts 80°
2026-05-08 01:57 43.64839 -70.30250 60 ft 10 kts 56°
2026-05-08 01:57 43.64862 -70.30229 59 ft 2 kts
2026-05-08 01:57 43.64876 -70.30233 61 ft 0 kts 350°